User: anonymous   Login
Location: *
(45.1961°N, 1.9694°E)
Time: 20:01:42
(UTC+00:00)
Language:

CZ-4C R/B - Orbit

View from above orbital plane
View from above orbital plane
View from above satellite
View from above satellite

Ground track
Ground track

The orbit data is extracted from the following two-line orbital elements,

1 36416U 10009D   19292.87577749 -.00000087 +00000-0 +94763-5 0  9997
2 36416 063.4266 130.1708 0471052 355.2554 004.4095 13.69553557481269
Epoch (UTC): 19 October 2019 21:01:07
Eccentricity: 0.0471052
inclination: 63.4266°
perigee height: 653 km
apogee height: 1349 km
right ascension of ascending node: 130.1708°
argument of perigee: 355.2554°
revolutions per day: 13.69553557
mean anomaly at epoch: 4.4095°
orbit number at epoch: 48126

The dashed part of the orbit path shows where the satellite is in the earth's shadow,  

DLR